User: anonymous   Login
Location: Lane
(33.5226°N, 79.8788°W)
Time: 21:01:11
(UTC+00:00)
Language:

Explorer 7 - Orbit

View from above orbital plane
View from above orbital plane
View from above satellite
View from above satellite

Ground track
Ground track

The orbit data is extracted from the following two-line orbital elements,

1 00022U 59009A   22273.46440157  .00003259  00000-0  25185-3 0  9997
2 00022  50.2817 139.6036 0133655 212.8599 146.3987 14.97484200595361
Epoch (UTC): 30 September 2022 11:08:44
Eccentricity: 0.0133655
inclination: 50.2817°
perigee height: 482 km
apogee height: 667 km
right ascension of ascending node: 139.6036°
argument of perigee: 212.8599°
revolutions per day: 14.97484200
mean anomaly at epoch: 146.3987°
orbit number at epoch: 59536

The dashed part of the orbit path shows where the satellite is in the earth's shadow,  

DLR